Regional Weather Roundup
Issued by NWS Little Rock, AR

Home | Current Version | Previous Version | Text Only | Print | Product List | Glossary Off
Versions: 1 2 3 4 5 6 7 8 9 10 11 12 13 14 15 16 17 18 19 20 21 22 23 24 25 26 27 28 29 30 31 32

000
ASUS44 KLZK 281005
RWRLZK

WEATHER ROUNDUP FOR ARKANSAS
NATIONAL WEATHER SERVICE LITTLE ROCK AR
500 AM CDT FRI APR 28 2017

NOTE: "FAIR" INDICATES FEW OR NO CLOUDS BELOW 12,000 FEET WITH NO
SIGNIFICANT WEATHER AND/OR OBSTRUCTIONS TO VISIBILITY.

ARZ001-003-010-029-281100-
NORTHWEST ARKANSAS

CITY           SKY/WX    TMP DP  RH WIND       PRES   REMARKS
FAYETTEVILLE   CLOUDY    55  54  96 E6        29.71F
FORT SMITH     CLOUDY    59  51  75 E14G22    29.69F
HARRISON       CLOUDY    53  51  93 SE14      29.77F
BENTONVILLE    MOCLDY    55  52  88 SE12      29.71F
ROGERS         LGT RAIN  55  53  93 E9        29.72F
SILOAM SPGS    CLOUDY    55  48  76 E12G18    29.68F
HIGHFILL       CLOUDY    56  53  90 SE12      29.69F
$$

ARZ004-005-016-281100-
NORTH CENTRAL ARKANSAS

CITY           SKY/WX    TMP DP  RH WIND       PRES   REMARKS
BATESVILLE     CLOUDY    54  50  87 CALM      29.81S
FLIPPIN        CLOUDY   N/A N/A N/A CALM      29.79R
MTN HOME       CLOUDY    54  51  90 SE5       29.81R
$$

ARZ040-041-281100-
WEST CENTRAL ARKANSAS

CITY           SKY/WX    TMP DP  RH WIND       PRES   REMARKS
MENA           CLOUDY    59  57  94 CALM      29.71R
MOUNT IDA      CLOUDY    57  54  89 CALM      29.69S
$$

ARZ009-017-025-026-028-281100-
NORTHEAST ARKANSAS

CITY           SKY/WX    TMP DP  RH WIND       PRES   REMARKS
CORNING        PTSUNNY   57  55  94 NE6       29.84S
JONESBORO      MOCLDY    56  53  90 NE6       29.81S
NEWPORT        CLOUDY    57  54  89 NE8       29.81R
WALNUT RIDGE   CLOUDY    57  52  82 NE6       29.82S
BLYTHEVILLE    CLOUDY    56  54  93 CALM      29.84R
$$

ARZ022-023-033-042-044-281100-
CENTRAL ARKANSAS

CITY           SKY/WX    TMP DP  RH WIND       PRES   REMARKS
LITTLE ROCK    CLOUDY    55  55 100 E7        29.76S
N LITTLE ROCK    N/A     55  53  93 E6        29.77S
JACKSONVILLE   MOCLDY    57  56  99 NE7       29.76S
CONWAY           N/A     55  55 100 NE5       29.76R
SEARCY         CLOUDY    57  55  93 NE7       29.81R
HOT SPRINGS    CLOUDY    58  55  90 E8        29.72F
RUSSELLVILLE   MOCLDY    57  54  89 E7        29.76R
CLINTON          N/A     54  52  94 CALM      29.80S
$$

ARZ036-281100-
EAST ARKANSAS

CITY           SKY/WX    TMP DP  RH WIND       PRES   REMARKS
WEST MEMPHIS   MOCLDY    56  55  97 E3        29.80R
$$

ARZ050-053-066-070-073-281100-
SOUTHWEST ARKANSAS

CITY           SKY/WX    TMP DP  RH WIND       PRES   REMARKS
ARKADELPHIA    PTSUNNY   57  55  93 NE7       29.73R
CAMDEN         PTCLDY    57  54  88 CALM      29.71S
TEXARKANA      CLOUDY    57  56  96 E3        29.66F
EL DORADO      MOCLDY    61  58  90 SE6       29.69F
DE QUEEN       CLOUDY    60  56  86 E8        29.66R
$$

ARZ056-057-069-281100-
SOUTHEAST ARKANSAS

CITY           SKY/WX    TMP DP  RH WIND       PRES   REMARKS
PINE BLUFF     PTCLDY    58  56  93 E5        29.75S
STUTTGART      PTCLDY    57  46  67 NE8       29.77S
MONTICELLO     PTCLDY    58  55  90 CALM      29.74S

$$






USA.gov is the U.S. government's official web portal to all federal, state and local government web resources and services.